User: anonymous   Login
Location: Potawatomi Wildlife Park
(41.2308°N, 86.1050°W)
Time: 00:15:21
(UTC-05:00)
Language:

SL-16 R/B - Orbit

View from above orbital plane
View from above orbital plane
View from above satellite
View from above satellite

Ground track
Ground track

The orbit data is extracted from the following two-line orbital elements,

1 27006U 01056F   14353.07635209  .00000019  00000-0  68389-4 0  3188
2 27006 099.1819 152.6463 0015042 165.6332 300.1193 13.70935061651654
Epoch (UTC): 19 December 2014 01:49:56
Eccentricity: 0.0015042
inclination: 99.1819°
perigee height: 985 km
apogee height: 1007 km
right ascension of ascending node: 152.6463°
argument of perigee: 165.6332°
revolutions per day: 13.70935061
mean anomaly at epoch: 300.1193°
orbit number at epoch: 65165

The dashed part of the orbit path shows where the satellite is in the earth's shadow,  

DLR